Flag for U.S.A. Weather past 2 weeks in Raleigh, North Carolina, U.S.A.

Now
44 °F

Passing clouds.


Feels Like: 40 °F
Forecast: 38 / 62 °F
Wind: 7 mph from South

Location: Raleigh-Durham International Airport

Current Time: Mar 29, 2015 at 10:53:45 PM

Latest Report: Mar 29, 2015 at 9:51 PM


Visibility: 10 mi

Pressure: 30.25 "Hg

Humidity: 31%

Dew point: 15 °F

Location of RaleighLocation

Historic Weather in Raleigh — Graph

°F

Raleigh temperature yesterday

Maximum temperature yesterday: 46 °F (at 5:51 PM)
Minimum temperature yesterday: 33 °F (at 11:51 PM)
Average temperature yesterday: 40 °F

Past Weeks' High & Low Weather Summary

 TemperatureHumidityPressure
High81 °F (Mar 17, 2:51 PM)100% (Mar 15, 1:51 AM)30.45 "Hg (Mar 15, 1:51 AM)
Low25 °F (Mar 29, 6:51 AM)14% (Mar 16, 4:51 PM)29.63 "Hg (Mar 27, 4:51 AM)
Average53 °F59%30.07 "Hg
* Reported Mar 14 8:51 PM — Mar 29 8:51 PM, Raleigh, Weather by CustomWeather, © 2015

Note: Actual official high and low records may vary slightly from our data, if they occured in-between our weather recording intervals... More about our weather records

Advertising

Raleigh weather history for previous 24 hours

 ConditionsComfort  
Time TempWeatherWind HumidityBarometerVisibility
8:51 PM
Sun, Mar 29
43 °FPassing clouds.5 mph37%30.26 "Hg10 mi
7:51 PM46 °FScattered clouds.5 mph27%30.28 "Hg10 mi
6:51 PM50 °FScattered clouds.8 mph21%30.30 "Hg10 mi
5:51 PM51 °FScattered clouds.7 mph20%30.32 "Hg10 mi
4:51 PM51 °FScattered clouds.8 mph20%30.31 "Hg10 mi
3:51 PM51 °FPassing clouds.5 mph20%30.32 "Hg10 mi
2:51 PM47 °FPassing clouds.No wind19%30.36 "Hg10 mi
1:51 PM47 °FSunny.6 mph21%30.40 "Hg10 mi
12:51 PM43 °FSunny.5 mph22%30.42 "Hg10 mi
11:51 AM42 °FSunny.6 mph27%30.45 "Hg10 mi
10:51 AM38 °FSunny.5 mph30%30.45 "Hg10 mi
9:51 AM35 °FSunny.9 mph36%30.45 "Hg10 mi
8:51 AM32 °FSunny.5 mph45%30.43 "Hg10 mi
7:51 AM25 °FClear.No wind69%30.42 "Hg10 mi
6:51 AM25 °FClear.No wind60%30.38 "Hg10 mi
5:51 AM26 °FClear.No wind57%30.36 "Hg10 mi
4:51 AM28 °FClear.No wind51%30.34 "Hg10 mi
3:51 AM28 °FClear.No wind51%30.32 "Hg10 mi
2:51 AM29 °FClear.No wind47%30.32 "Hg10 mi
1:51 AM30 °FClear.No wind45%30.31 "Hg10 mi
12:51 AM32 °FClear.6 mph38%30.29 "Hg10 mi
11:51 PM
Sat, Mar 28
33 °FClear.7 mph38%30.28 "Hg10 mi
10:51 PM34 °FClear.No wind37%30.25 "Hg10 mi
Weather by CustomWeather, © 2015

See weather overviewHow to use our weather pages